Theta_e
292 292 292 291 290 293 296 296 297 297 297 299 300 299 298 297 296 295 296 296 297 298 297 297 297 297 296 296 295 295 295 295 296 296 296 296 295 295 295 293 291 291 291
289 289 289 288 288 288 288 289 291 294 296 296 296 298 298 297 296 295 295 294 295 295 297 298 298 296 296 296 295 295 295 295 295 295 295 296 295 294 293 293 292 291 290
288 288 287 286 286 286 286 286 287 288 289 290 292 294 296 298 296 295 293 294 294 294 295 296 296 296 297 296 295 295 294 294 294 293 294 294 294 293 291 291 292 291 290
287 286 286 286 286 286 286 286 286 286 286 287 287 288 289 293 297 295 294 293 293 293 293 293 294 295 296 296 296 295 294 294 293 293 292 293 293 292 290 290 291 291 290
286 286 286 286 286 286 286 286 286 286 286 286 286 286 287 287 287 292 296 294 294 292 292 293 293 294 294 294 295 295 295 294 293 292 292 292 292 291 291 290 288 290 289
286 286 286 286 286 286 286 286 286 286 285 285 285 285 286 286 286 285 287 295 294 293 291 291 292 293 293 292 293 293 294 295 293 293 292 292 292 291 292 291 288 287 288
286 286 286 286 286 286 286 286 285 285 285 285 285 285 285 285 285 285 285 285 291 295 292 290 290 291 291 292 291 290 291 293 293 294 293 293 292 292 292 292 289 288 288
285 285 285 284 284 285 285 285 285 285 285 285 285 285 285 286 285 285 285 284 285 288 295 293 291 290 290 291 291 290 289 289 290 290 292 292 292 292 292 292 291 288 286
281 281 281 281 281 282 283 283 283 283 283 284 284 284 284 285 285 285 285 284 284 285 286 293 293 291 289 288 289 289 288 289 289 288 289 290 290 290 290 290 287 286 285
280 279 279 279 279 278 278 278 279 280 281 281 282 283 283 283 284 284 284 284 284 284 285 287 292 293 291 287 287 287 287 287 286 286 286 286 287 287 289 288 288 287 285
278 277 276 276 276 275 275 275 275 275 274 276 278 281 281 282 283 283 282 283 283 284 284 285 289 292 291 289 288 287 290 290 286 286 285 285 285 285 286 287 286 285 285
275 275 274 273 272 271 271 271 270 271 271 271 271 273 278 280 279 280 281 283 284 285 285 286 287 290 289 288 287 286 285 286 286 285 285 284 284 284 284 284 284 283 283
274 272 271 270 269 268 267 267 267 267 268 269 270 271 272 274 276 278 280 282 284 284 284 285 287 287 288 287 287 286 285 285 285 284 284 284 284 284 283 282 283 282 282
272 270 268 266 265 265 265 265 265 265 266 267 268 269 270 271 273 275 279 281 282 283 282 284 286 287 287 287 286 286 285 285 285 284 283 283 282 281 282 283 282 282 281
268 266 265 265 264 264 264 264 264 265 265 266 267 267 268 269 270 273 276 278 281 282 282 283 285 285 286 285 285 285 285 285 284 283 283 282 281 280 281 281 281 281 281
265 264 264 263 263 264 264 264 265 266 267 268 268 269 270 270 272 273 275 276 278 280 283 283 284 284 284 284 284 284 284 284 283 282 282 281 280 280 281 281 280 280 281
264 263 263 264 264 263 264 264 264 265 266 267 268 268 269 270 271 273 274 275 277 280 283 284 284 283 283 283 283 284 283 283 282 281 281 281 280 280 281 280 280 280 278
264 264 264 264 264 264 264 265 265 265 265 266 267 267 268 269 271 272 274 276 278 280 282 284 284 283 282 282 283 283 282 281 280 281 281 280 279 279 279 280 279 278 277
265 265 265 264 265 265 265 266 266 266 266 267 268 269 270 270 270 273 275 277 281 284 284 284 283 282 282 282 283 283 282 281 280 280 280 278 278 278 277 277 276 276 276
266 266 266 265 265 266 266 267 267 268 268 269 269 271 273 273 275 277 278 280 281 283 284 283 283 282 282 282 282 282 281 279 279 279 279 278 277 277 277 276 276 275 274
266 266 266 267 267 267 267 268 269 271 272 271 272 273 272 275 277 277 279 281 283 284 283 283 282 281 282 282 282 281 280 279 278 279 278 277 277 276 276 276 274 274 274
267 267 267 267 267 268 268 268 269 270 271 271 272 272 274 275 276 278 279 282 283 282 282 282 281 281 281 281 281 280 279 278 277 277 277 277 276 275 274 274 274 273 273
268 268 268 268 268 268 269 269 270 270 270 271 272 273 274 274 275 277 278 280 280 280 280 280 280 280 280 280 279 278 278 277 277 277 277 276 275 274 274 274 273 273 272
270 269 268 268 268 268 269 269 270 270 270 270 271 271 272 274 275 276 277 277 277 277 276 276 277 278 278 277 277 276 276 276 275 275 275 275 274 274 273 273 272 271 270
270 270 269 269 269 269 269 269 269 270 270 271 271 271 272 272 273 274 274 275 275 275 275 276 276 276 276 275 275 274 274 274 274 274 274 274 273 273 272 271 270 270 270
270 270 270 270 270 270 270 269 269 269 270 271 271 271 271 272 272 273 273 273 274 274 274 274 273 273 273 273 273 273 273 273 273 273 272 271 271 270 270 270 270 270 269
Wind_Speed
27 27 27 26 24 20 18 19 23 24 24 23 21 22 25 28 28 31 35 37 41 45 51 55 58 58 59 58 56 54 51 46 40 32 35 33 35 36 35 35 34 31 28
27 27 26 26 26 26 27 26 23 22 23 26 27 26 23 24 27 31 34 37 40 43 45 50 57 58 59 59 59 59 56 51 47 41 39 38 37 37 37 35 35 33 30
25 27 27 29 30 29 29 30 29 29 27 25 26 28 28 26 26 28 32 35 38 40 44 45 52 54 60 60 61 60 59 56 50 49 45 43 39 39 39 40 38 36 33
25 26 28 30 32 33 34 34 34 33 33 30 28 28 29 29 28 27 29 34 37 40 42 46 48 51 55 59 61 62 60 58 56 53 51 47 45 43 43 43 41 38 35
29 31 33 34 35 36 37 38 39 39 38 37 35 33 32 31 31 31 30 31 34 39 43 45 48 49 53 54 58 62 62 61 60 58 57 53 50 49 47 46 44 38 36
30 33 36 38 41 43 46 48 47 46 44 43 42 40 39 37 36 33 32 34 34 36 42 44 47 48 50 52 55 56 60 63 64 63 63 62 59 55 50 47 43 40 37
33 35 38 40 42 43 45 46 48 51 54 53 50 47 46 45 43 41 37 36 37 38 42 44 45 47 48 48 52 55 59 63 61 62 63 66 63 63 55 50 46 43 39
37 39 39 40 42 43 45 48 51 53 54 55 57 57 56 54 50 48 45 43 41 40 41 45 45 46 48 46 46 49 57 60 63 63 62 59 61 60 56 53 49 44 38
33 36 39 43 46 50 52 54 55 58 59 60 60 62 63 64 60 55 52 48 47 47 42 43 45 48 47 45 43 48 49 58 60 59 59 58 58 58 53 50 50 44 40
36 38 37 39 42 49 56 60 63 64 66 66 67 66 67 68 67 63 57 52 51 50 47 46 44 46 48 41 44 47 47 54 51 51 52 54 56 56 54 53 51 50 46
42 46 48 46 44 45 48 50 52 54 57 66 69 71 70 68 68 67 57 46 51 49 47 47 47 45 43 46 46 49 52 49 47 44 48 49 54 55 54 53 50 46 46
51 53 54 54 54 53 49 51 48 47 50 55 56 63 69 68 64 59 40 38 45 41 44 44 44 42 42 41 41 47 45 40 46 48 50 52 54 54 53 51 47 44 43
53 54 55 55 53 50 47 47 46 44 45 48 47 50 54 54 52 44 38 36 38 39 44 43 42 40 38 39 40 44 46 45 50 50 53 54 52 53 52 48 45 43 39
53 54 53 48 46 44 41 39 40 40 41 42 42 43 44 45 43 36 30 30 32 36 38 40 42 40 42 42 39 36 43 50 50 49 45 43 43 47 51 50 48 43 38
50 49 47 44 41 42 40 40 40 41 41 44 45 46 46 49 44 37 33 34 28 31 28 28 37 36 41 39 39 38 37 45 49 45 41 43 45 48 47 46 44 41 37
46 44 42 42 42 41 42 43 38 38 39 40 42 44 49 50 47 44 42 40 40 33 32 33 32 36 38 39 39 39 38 41 47 45 45 45 47 45 44 42 41 39 36
39 41 41 43 43 42 41 41 44 46 39 38 38 39 40 42 41 41 40 38 38 36 40 38 34 36 39 38 35 35 37 42 45 46 45 44 45 43 43 46 42 38 36
39 40 40 41 40 41 41 42 43 44 45 47 40 34 34 34 34 34 34 33 37 36 39 35 32 35 35 34 31 32 36 40 44 45 43 42 41 42 45 43 43 40 35
37 38 37 38 39 41 42 43 42 42 42 44 43 36 29 24 25 28 29 35 36 27 32 32 29 34 32 30 32 36 39 42 43 43 41 40 40 43 42 39 36 32 27
36 34 34 37 39 39 38 38 39 40 40 39 37 33 30 26 26 20 20 19 24 24 25 22 25 30 32 30 33 38 40 43 43 40 39 40 39 39 36 33 29 26 23
35 34 31 32 33 33 35 35 34 35 33 31 31 30 28 30 25 21 20 16 17 19 12 19 25 29 29 26 31 36 37 38 39 40 38 37 35 33 30 28 26 23 18
31 30 29 29 29 29 27 26 25 24 21 24 25 22 19 18 11 9 1 8 9 7 5 13 21 24 23 23 27 30 32 33 34 35 34 31 30 28 27 24 22 20 17
27 26 26 25 26 25 25 23 22 22 21 20 18 18 16 11 7 3 4 5 4 3 8 15 19 23 21 20 19 19 21 24 27 31 29 29 27 26 24 22 20 16 12
24 23 23 23 24 24 24 24 22 21 20 19 18 17 15 13 11 9 8 6 4 5 7 10 13 13 13 12 12 13 15 19 23 25 24 25 25 23 21 18 15 13 11
24 22 21 22 23 24 24 26 25 23 21 21 20 19 18 17 16 15 13 12 11 11 11 11 11 10 9 11 14 16 18 20 22 22 21 19 18 16 15 15 14 11 8
23 23 21 21 21 21 23 25 26 27 26 24 24 23 23 23 22 21 19 18 17 16 16 16 16 17 18 19 19 19 19 19 19 17 15 14 14 14 13 11 10 8 7
Wind_Direction
360 359 0 1 358 352 340 334 335 336 336 334 328 309 296 287 280 276 270 263 259 256 253 252 251 249 247 247 245 241 240 237 235 232 239 240 236 234 232 229 231 229 235
353 351 351 349 349 349 347 346 341 329 324 326 326 324 317 299 288 277 272 269 263 258 257 254 252 250 249 248 247 245 242 239 235 234 236 236 234 233 234 230 230 230 237
341 340 342 342 341 340 340 339 338 335 333 327 321 319 316 314 299 284 276 272 269 266 261 258 255 251 249 248 247 246 244 241 237 237 238 239 236 234 229 227 227 229 237
331 330 330 329 330 329 328 328 329 330 328 326 324 322 319 313 305 299 287 278 272 268 263 259 257 254 252 250 248 248 246 243 238 235 237 238 238 235 231 231 226 226 234
321 322 321 320 319 317 317 318 319 320 320 321 320 317 317 317 314 309 299 288 280 275 267 261 258 256 256 253 251 249 246 244 240 236 236 235 234 231 233 232 230 229 230
312 312 311 311 311 311 313 314 313 313 313 314 315 315 313 311 313 314 307 296 284 276 273 267 261 259 256 256 255 252 250 248 242 238 236 237 237 236 236 237 235 228 222
309 308 307 305 302 302 302 302 303 305 308 309 308 308 307 307 308 309 308 301 291 283 273 268 265 262 258 254 255 254 253 253 250 248 243 241 239 238 238 237 234 236 233
306 305 303 301 300 299 300 299 299 299 299 299 301 302 301 299 300 302 304 303 296 284 279 273 266 263 259 256 254 253 251 249 247 244 245 246 246 247 242 243 242 236 230
298 300 302 302 300 299 297 295 294 294 293 292 293 293 294 294 294 295 297 297 295 292 284 276 270 265 258 255 252 252 249 252 248 244 244 244 243 244 241 236 228 225 223
303 298 294 290 289 292 295 296 295 292 290 289 286 285 285 286 288 289 290 290 290 289 286 280 275 269 265 242 240 246 242 245 235 236 230 233 235 238 237 235 233 225 222
302 300 297 294 289 285 286 285 287 287 287 288 286 282 280 279 281 283 282 276 281 282 279 276 276 279 273 259 244 242 248 249 234 231 231 227 228 229 229 227 227 226 225
306 304 301 299 296 293 289 287 285 283 283 284 286 287 283 279 279 279 273 266 272 267 269 268 271 273 268 262 244 239 236 228 227 226 225 224 226 226 222 221 220 221 223
307 306 305 304 302 301 297 292 289 285 281 279 278 279 282 284 282 278 272 265 264 262 268 263 262 263 259 253 248 239 227 221 222 217 217 220 220 223 219 217 218 218 218
309 308 308 308 308 307 303 295 289 286 284 281 280 278 280 281 280 282 282 272 262 266 264 259 255 256 255 256 251 242 232 223 218 217 212 210 204 200 212 216 212 209 208
311 310 310 309 306 302 296 292 289 286 282 282 280 279 278 278 277 278 271 270 276 281 281 265 259 246 242 237 238 239 230 222 216 213 206 199 195 199 209 211 209 206 206
312 310 309 306 302 299 296 294 295 289 288 284 281 278 278 277 277 275 272 271 267 269 266 266 255 234 229 224 222 227 229 219 207 204 199 198 195 203 209 203 207 204 207
313 313 312 310 305 299 296 295 295 300 296 290 286 283 280 279 277 274 270 267 263 258 259 254 252 236 227 222 225 222 215 208 201 201 203 206 208 213 207 200 204 207 204
319 316 312 309 304 300 297 296 295 294 295 299 305 294 288 284 279 273 269 264 262 248 254 246 249 230 222 220 221 208 200 200 201 207 207 211 212 211 202 201 204 205 204
322 321 321 316 310 306 303 300 298 296 295 299 310 315 315 302 287 279 266 261 259 250 235 241 249 222 221 214 212 208 207 204 206 208 209 211 205 202 201 198 198 198 199
324 324 327 322 314 311 310 306 304 301 301 305 312 323 330 330 326 319 298 271 258 250 229 250 230 209 206 211 210 208 201 199 202 204 205 203 201 200 197 192 191 191 190
331 329 328 326 326 324 320 316 315 313 313 318 324 332 320 312 312 309 303 287 246 213 236 216 206 209 210 216 216 207 205 201 203 202 201 197 195 191 189 187 183 188 195
333 333 333 334 335 333 333 332 332 333 329 323 323 323 316 316 315 314 44 119 162 198 234 217 208 207 207 213 214 210 208 206 203 200 193 190 188 185 180 181 185 188 196
342 342 343 345 347 348 350 352 351 351 353 352 350 348 349 356 8 45 78 101 111 161 185 195 200 195 197 202 208 212 212 208 205 196 191 185 181 179 182 184 187 192 197
350 352 354 357 1 3 4 4 5 7 8 11 15 22 31 39 45 47 54 72 104 145 161 170 175 180 180 180 185 189 193 196 189 183 183 180 177 179 181 184 189 192 202
5 3 4 7 11 13 17 22 23 25 27 30 34 40 45 51 57 63 70 79 88 100 110 121 131 140 149 151 145 145 151 159 164 166 168 172 174 177 182 187 194 202 220
14 15 13 13 17 23 29 35 38 41 45 47 49 53 57 61 66 72 78 86 93 99 104 108 111 116 123 127 133 141 147 152 158 161 165 170 177 182 187 194 205 222 245